Weather History for KSAV - March, 2014

Change the Weather History Date:

Saturday, March 1, 2014

  Actual Average Record
Temperature  
Mean Temperature 58 °F 56 °F  
Max Temperature 70 °F 68 °F 86 °F (1918)
Min Temperature 46 °F 45 °F 23 °F (2002)
Degree Days  
Heating Degree Days 7 10  
Month to date heating degree days 7 10  
Since 1 July heating degree days 1388 1527  
Cooling Degree Days 0 1  
Month to date cooling degree days 0 1  
Year to date cooling degree days 18 11  
Growing Degree Days 7 (Base 50)    
Moisture  
Dew Point 45 °F    
Average Humidity 67    
Maximum Humidity 93    
Minimum Humidity 40    
Precipitation  
Precipitation 0.00 in 0.11 in 3.28 in (1872)
Month to date precipitation 0.00 0.11  
Year to date precipitation 4.11 6.59  
Sea Level Pressure  
Sea Level Pressure 30.23 in    
Wind  
Wind Speed 4 mph (NNE)    
Max Wind Speed 15 mph    
Max Gust Speed 21 mph    
Visibility 10 miles    
Events      
T = Trace of Precipitation, MM = Missing Value Source: NWS Daily Summary

Daily Weather History Graph

Daily Weather History Graph

Search for Another Location

Airport or City:

Trip Planner

Search our weather history database for the weather conditions in past years. The results will help you decide how hot, cold, wet, or windy it might be!

Date:

Astronomy

Mar. 01, 2014 Rise Set
Actual Time 6:52 AM EST 6:22 PM EST
Civil Twilight 6:27 AM EST 6:47 PM EST
Nautical Twilight 5:59 AM EST 7:15 PM EST
Astronomical Twilight 5:30 AM EST 7:43 PM EST
Moon 6:48 AM EST (3/1) 7:03 PM EST (3/1)
Length of Visible Light 12h 19m
Length of Day
11h 30m
New Moon, 0% of the Moon is Illuminated
Mar 1
New Moon
Mar 8
First Quarter
Mar 16
Full
Mar 23
Last Quarter
Mar 30
New

Hourly Weather History & Observations

Time (EST) Temp. Dew Point Humidity Pressure Visibility Wind Dir Wind Speed Gust Speed Precip Events Conditions
12:53 AM 48.0 °F 43.0 °F 83% 30.21 in 10.0 mi North 3.5 mph - N/A   Overcast
1:53 AM 48.0 °F 44.1 °F 86% 30.19 in 10.0 mi NE 3.5 mph - N/A   Overcast
2:53 AM 48.0 °F 44.1 °F 86% 30.17 in 10.0 mi NNE 5.8 mph - N/A   Scattered Clouds
3:16 AM 48.2 °F 44.6 °F 87% 30.18 in 10.0 mi North 3.5 mph - N/A   Mostly Cloudy
3:36 AM 48.2 °F 44.6 °F 87% 30.18 in 10.0 mi NNE 3.5 mph - N/A   Overcast
3:53 AM 48.9 °F 45.0 °F 86% 30.16 in 10.0 mi ENE 8.1 mph - N/A   Overcast
4:53 AM 48.9 °F 46.0 °F 90% 30.17 in 10.0 mi ENE 5.8 mph - N/A   Overcast
5:53 AM 50.0 °F 46.9 °F 89% 30.20 in 10.0 mi North 4.6 mph - N/A   Overcast
6:53 AM 50.0 °F 46.0 °F 86% 30.25 in 10.0 mi NNW 6.9 mph - N/A   Overcast
7:53 AM 48.9 °F 45.0 °F 86% 30.27 in 10.0 mi North 8.1 mph - N/A   Overcast
8:53 AM 50.0 °F 43.0 °F 77% 30.29 in 10.0 mi North 6.9 mph - N/A   Overcast
9:40 AM 53.6 °F 42.8 °F 67% 30.29 in 10.0 mi North 3.5 mph - N/A   Mostly Cloudy
9:53 AM 54.0 °F 43.0 °F 66% 30.29 in 10.0 mi North 3.5 mph - N/A   Mostly Cloudy
10:29 AM 55.4 °F 44.6 °F 67% 30.29 in 10.0 mi Calm Calm - N/A   Mostly Cloudy
10:53 AM 57.9 °F 45.0 °F 62% 30.30 in 10.0 mi North 5.8 mph - N/A   Mostly Cloudy
11:53 AM 61.0 °F 46.0 °F 58% 30.28 in 10.0 mi Calm Calm - N/A   Mostly Cloudy
12:53 PM 64.0 °F 46.0 °F 52% 30.26 in 10.0 mi Variable 3.5 mph - N/A   Mostly Cloudy
1:53 PM 64.9 °F 46.0 °F 50% 30.22 in 10.0 mi Calm Calm - N/A   Mostly Cloudy
2:53 PM 66.9 °F 45.0 °F 45% 30.20 in 10.0 mi Variable 3.5 mph - N/A   Scattered Clouds
3:53 PM 69.1 °F 44.1 °F 40% 30.19 in 10.0 mi Variable 3.5 mph - N/A   Scattered Clouds
4:53 PM 69.1 °F 44.1 °F 40% 30.19 in 10.0 mi Calm Calm - N/A   Partly Cloudy
5:53 PM 64.0 °F 46.0 °F 52% 30.19 in 10.0 mi East 9.2 mph - N/A   Clear
6:53 PM 59.0 °F 48.0 °F 67% 30.21 in 10.0 mi SE 9.2 mph - N/A   Clear
7:53 PM 57.0 °F 46.9 °F 69% 30.23 in 10.0 mi ESE 3.5 mph - N/A   Clear
8:53 PM 54.0 °F 46.9 °F 77% 30.25 in 10.0 mi SE 3.5 mph - N/A   Clear
9:53 PM 54.0 °F 46.9 °F 77% 30.26 in 10.0 mi Calm Calm - N/A   Clear
10:53 PM 48.9 °F 45.0 °F 86% 30.26 in 10.0 mi Calm Calm - N/A   Clear
11:53 PM 48.0 °F 45.0 °F 89% 30.26 in 8.0 mi Calm Calm - N/A   Clear